Weather in Mexicali

Mexico     32°38′22″N   115°27′04″W
temp.,
°C
wind,
m/s
gust,
m/s
humid.,
%
clouds,
%
prec.,
mm/h
press.,
hPa
HPBL,
m
17 january, sun
sun1701:00+15nne112443 0.0 101723
04:00+14ne122622 0.0 101623
07:00+14sse11310 0.0 101823
10:00+24nw12160 0.0 1018420
13:00+28n33110 0.0 10151236
16:00+27nw22110 0.0 1014161
19:00+18n12190 0.0 101423
22:00+16sw01220 0.0 101423
18 january, mon
mon1801:00+15ne11230 0.0 101223
04:00+14nne01230 0.0 101123
07:00+14ese11230 0.0 101123
10:00+24ene11127 0.0 1012411
13:00+28nnw12923 0.0 10091508
16:00+27sse011017 0.0 1008111
19:00+17nnw121745 0.0 100923
22:00+15e221823 0.0 101035
19 january, tue
tue1901:00+13s22190 0.0 100926
04:00+12ne22220 0.0 100929
07:00+12nw342375 0.0 101179
10:00+17nnw571487 0.0 10131125
13:00+21n781285 0.0 10121756
16:00+20n791543 0.0 10121752
19:00+12nw58320 0.0 1014139
22:00+13wnw463149 0.0 1015113
20 january, wed
wed2001:00+12wnw2333100 0.0 101643
04:00+10nw113797 0.0 101627
07:00+10s11380 0.0 101822
10:00+17ene463933 0.0 1019729
13:00+18se235775 0.0 1017843
16:00+17wsw116686 0.3 1016453
19:00+13wnw337883 0.0 101763
22:00+12nw237174 0.0 101737
21 january, thu
thu2101:00+13sw1168100 0.0 101623
04:00+14ne116798 0.0 101530
07:00+13s227374 0.0 101636
10:00+18nw225178 0.0 1016605
13:00+21n2244100 0.0 10131419
16:00+21nne114390 0.0 10121431
19:00+14e337017 0.0 101437
22:00+14sse34758 0.0 101450